{"data":{"norad_id":45368,"epoch":"2026-09-19T19:16:59.356992Z","epoch_age_seconds":77655,"freshness":"FRESH","line1":"1 45368U 20019J   26262.80346478  .00013850  00000+0  67406-3 0  9998","line2":"2 45368  53.0697   4.2925 0000938  41.0707 319.0358 15.18661997359154","mean_motion":15.18661997,"eccentricity":9.38e-5,"inclination_deg":53.0697,"raan_deg":4.2925,"arg_perigee_deg":41.0707,"mean_anomaly_deg":319.0358,"bstar":0.00067406,"rev_number":35915,"period_min":94.820309117145,"perigee_km":509.23730014776,"apogee_km":510.52949277414,"semimajor_km":6888.0203964609,"source":"CELESTRAK","updated_at":"2026-09-20T09:00:38.230210Z"}}